Weather History for Harrison, AR

Change the Weather History Date:

Saturday, December 1, 2012

  Actual Average Record
Temperature  
Mean Temperature 62 °F 42 °F  
Max Temperature 68 °F 52 °F 73 °F (1970)
Min Temperature 56 °F 32 °F 11 °F (1910)
Degree Days  
Heating Degree Days 3 23  
Month to date heating degree days 3 23  
Since 1 July heating degree days 755 787  
Cooling Degree Days 0 0  
Month to date cooling degree days 0 0  
Year to date cooling degree days 1961 1416  
Growing Degree Days 12 (Base 50)    
Moisture  
Dew Point 55 °F    
Average Humidity 78    
Maximum Humidity 93    
Minimum Humidity 63    
Precipitation  
Precipitation 0.00 in 0.12 in 0.97 in (1905)
Month to date precipitation 0.00 0.12  
Year to date precipitation 27.45 41.06  
Snow  
Snow 0.00 in 0.00 in 1.00 in (1955)
Month to date snowfall 0.0 0.0  
Since 1 July snowfall 0.0 0.5  
Snow Depth 0.00 in    
Sea Level Pressure  
Sea Level Pressure 30.02 in    
Wind  
Wind Speed 12 mph (South)    
Max Wind Speed 21 mph    
Max Gust Speed 30 mph    
Visibility 10 miles    
Events      
T = Trace of Precipitation, MM = Missing Value Source: NWS Daily Summary

Daily Weather History Graph

Daily Weather History Graph

Search for Another Location

Airport:

Trip Planner

Search our weather history database for the weather conditions in past years. The results will help you decide how hot, cold, wet, or windy it might be!

Date:

Astronomy

Dec. 01, 2012 Rise Set
Actual Time 7:05 AM CST 4:57 PM CST
Civil Twilight 6:37 AM CST 5:26 PM CST
Nautical Twilight 6:05 AM CST 5:57 PM CST
Astronomical Twilight 5:34 AM CST 6:28 PM CST
Moon 7:46 PM CST (12/1) 9:20 AM CST (12/1)
Length of Visible Light 10h 48m
Length of Day
9h 51m
Waning Gibbous, 91% of the Moon is Illuminated
Dec 1
Waning Gibbous
Dec 6
Last Quarter
Dec 13
New
Dec 19
First Quarter
Dec 28
Full

Hourly Weather History & Observations

Time (CST) Temp. Dew Point Humidity Pressure Visibility Wind Dir Wind Speed Gust Speed Precip Events Conditions
12:28 AM 57.2 °F 53.6 °F 88% 30.09 in 10.0 mi South 10.4 mph 19.6 mph N/A   Scattered Clouds
12:53 AM 57.9 °F 53.1 °F 84% 30.06 in 10.0 mi South 10.4 mph 18.4 mph N/A   Scattered Clouds
1:26 AM 57.2 °F 53.6 °F 88% 30.09 in 10.0 mi South 8.1 mph - N/A   Mostly Cloudy
1:53 AM 57.9 °F 53.1 °F 84% 30.07 in 10.0 mi South 10.4 mph - N/A   Mostly Cloudy
2:45 AM 57.2 °F 53.6 °F 88% 30.09 in 10.0 mi South 5.8 mph - N/A   Scattered Clouds
2:53 AM 55.9 °F 53.1 °F 90% 30.07 in 10.0 mi South 6.9 mph - N/A   Mostly Cloudy
3:49 AM 55.4 °F 53.6 °F 94% 30.08 in 10.0 mi South 9.2 mph - N/A   Scattered Clouds
3:53 AM 55.9 °F 52.0 °F 87% 30.06 in 10.0 mi South 9.2 mph - N/A   Partly Cloudy
4:18 AM 55.4 °F 53.6 °F 94% 30.08 in 10.0 mi South 8.1 mph - N/A   Mostly Cloudy
4:44 AM 55.4 °F 53.6 °F 94% 30.07 in 10.0 mi SSE 11.5 mph - N/A   Scattered Clouds
4:53 AM 57.0 °F 53.1 °F 87% 30.06 in 10.0 mi SSE 9.2 mph - N/A   Scattered Clouds
5:05 AM 57.2 °F 53.6 °F 88% 30.07 in 10.0 mi SSE 10.4 mph - N/A   Mostly Cloudy
5:53 AM 57.2 °F 53.6 °F 88% 30.06 in 10.0 mi SE 10.4 mph - N/A   Mostly Cloudy
6:53 AM 57.0 °F 53.1 °F 87% 30.05 in 9.0 mi SE 5.8 mph - N/A   Overcast
7:38 AM 57.2 °F 53.6 °F 88% 30.06 in 9.0 mi SSE 9.2 mph - N/A   Scattered Clouds
7:53 AM 59.0 °F 55.4 °F 88% 30.06 in 9.0 mi South 9.2 mph - N/A   Partly Cloudy
8:08 AM 60.8 °F 55.4 °F 82% 30.06 in 10.0 mi South 10.4 mph - N/A   Mostly Cloudy
8:53 AM 61.0 °F 55.0 °F 81% 30.06 in 10.0 mi South 11.5 mph - N/A   Overcast
9:53 AM 62.6 °F 55.4 °F 77% 30.07 in 10.0 mi South 12.7 mph 18.4 mph N/A   Overcast
10:53 AM 64.0 °F 55.9 °F 75% 30.03 in 10.0 mi South 13.8 mph 21.9 mph N/A   Overcast
11:53 AM 64.9 °F 55.0 °F 70% 30.00 in 10.0 mi SSW 16.1 mph 26.5 mph N/A   Overcast
12:53 PM 66.9 °F 55.0 °F 66% 29.97 in 10.0 mi South 13.8 mph 23.0 mph N/A   Mostly Cloudy
1:11 PM 68.0 °F 55.4 °F 64% 29.98 in 10.0 mi South 12.7 mph 25.3 mph N/A   Mostly Cloudy
1:53 PM 68.0 °F 55.0 °F 63% 29.94 in 10.0 mi South 16.1 mph 23.0 mph N/A   Mostly Cloudy
2:53 PM 68.0 °F 55.0 °F 63% 29.94 in 10.0 mi SSW 16.1 mph 24.2 mph N/A   Overcast
3:53 PM 66.9 °F 55.9 °F 68% 29.94 in 10.0 mi South 16.1 mph 20.7 mph N/A   Overcast
4:53 PM 66.0 °F 55.9 °F 70% 29.93 in 10.0 mi South 16.1 mph 27.6 mph N/A   Mostly Cloudy
5:53 PM 64.9 °F 55.9 °F 73% 29.92 in 10.0 mi South 18.4 mph 25.3 mph N/A   Clear
6:53 PM 64.9 °F 55.9 °F 73% 29.93 in 10.0 mi South 16.1 mph 27.6 mph N/A   Clear
7:53 PM 66.0 °F 55.9 °F 70% 29.95 in 10.0 mi South 13.8 mph 24.2 mph N/A   Clear
8:53 PM 66.0 °F 57.0 °F 73% 29.96 in 10.0 mi South 8.1 mph 21.9 mph N/A   Partly Cloudy
9:53 PM 66.0 °F 57.0 °F 73% 29.97 in 10.0 mi South 8.1 mph - N/A   Clear
10:53 PM 66.0 °F 57.9 °F 75% 29.98 in 10.0 mi South 10.4 mph 19.6 mph N/A   Clear
11:53 PM 64.9 °F 57.9 °F 78% 29.97 in 10.0 mi South 11.5 mph 20.7 mph N/A   Clear